Regional Weather Roundup
Issued by NWS

Home | Current Version | Previous Version | Graphics & Text | Print | Product List | Glossary On
Versions: 1 2 3 4 5 6 7 8 9 10 11 12 13 14 15 16 17 18 19 20 21 22 23 24 25 26 27 28 29 30 31 32 33 34 35 36 37 38 39 40 41 42 43 44 45 46 47 48 49 50
844
ASUS45 KBOU 170307
RWRCO

WEATHER ROUNDUP FOR COLORADO
NATIONAL WEATHER SERVICE DENVER/BOULDER CO
900 PM MDT MON OCT 16 2017

NOTE: "FAIR" INDICATES FEW OR NO CLOUDS BELOW 12000 FEET WITH NO
SIGNIFICANT WEATHER AND/OR OBSTRUCTIONS TO VISIBILITY.

COZ001>005-013-030-031-170400-
...NORTHWEST COLORADO...

CITY           SKY/WX    TMP DP  RH WIND       PRES   REMARKS
CRAIG          FAIR      37  13  37 E5        30.37R
HAYDEN         FAIR      42   7  23 S3        30.39S
MEEKER         FAIR      38  14  37 SE3       30.39R
RABBIT EARS PA FAIR      37   0  20 W7        30.55S
STEAMBOAT SPGS FAIR      45   7  21 E5        30.40S
WALDEN         FAIR      34   3  27 S7        30.44S WCI  28
$$

COZ006>008-011-170400-
...WEST CENTRAL VALLEYS...

CITY           SKY/WX    TMP DP  RH WIND       PRES   REMARKS
GRAND JUNCTION FAIR      44  11  26 CALM      30.34S
MONTROSE       FAIR      43  17  35 SE8       30.41R
EAGLE          FAIR      41  11  29 E8        30.43R
RIFLE          FAIR      48  11  22 SE6       30.37R
DELTA          FAIR      51  16  25 N7        30.37R
NUCLA          FAIR      50   5  16 E10       30.41S
$$

COZ017>023-064>068-170400-
...SOUTHWEST COLORADO...

CITY           SKY/WX    TMP DP  RH WIND       PRES   REMARKS
DURANGO        FAIR      48  16  27 N3        30.40R
CORTEZ         FAIR      43  17  35 E8        30.38R
PAGOSA SPRINGS FAIR      46  11  24 CALM      30.46S
TELLURIDE      NOT AVBL
WOLF CREEK PAS FAIR      36   9  32 S15G22    30.70S
$$

COZ009-010-012-014-032>034-037-058>063-170400-
...CENTRAL COLORADO...

CITY           SKY/WX    TMP DP  RH WIND       PRES   REMARKS
ASPEN          FAIR      41  10  28 S10       30.47R
BUENA VISTA    FAIR      43   1  17 W10       30.43R
COPPER MTN     LGT SNOW  36   3  25 W14       30.64S
BERTHOUD PASS  FAIR      32  23  69 W28       30.63F WCI  18
COTTONWOOD PAS FAIR      54 -47   1 W8        30.53S
GUNNISON       FAIR      42   3  19 NW9       30.46R
KREMMLING      FAIR      43  12  28 CALM      30.44R
LEADVILLE      FAIR      36  -1  21 NE10      30.53R
MONARCH PASS   FAIR      37  -9  13 W30G37    30.73F
SALIDA         NOT AVBL
SUNLIGHT       FAIR      36  -8  15 SW8       30.62S
WILKERSON PASS FAIR      43 -15   8 CALM      30.63S
$$

COZ069>075-170400-
...SAN LUIS VALLEY/SANGRE DE CRISTO MOUNTAINS...

CITY           SKY/WX    TMP DP  RH WIND       PRES   REMARKS
ALAMOSA        FAIR      41  22  46 W9        30.40R
DEL NORTE      FAIR      44  17  33 W9        30.45R
LA VETA PASS   FAIR      46   9  21 S25G37    30.64S
SAGUACHE       FAIR      45   7  21 N10       30.44S
$$

COZ035-036-038>040-170400-
...NORTHERN COLORADO FRONT RANGE...

CITY           SKY/WX    TMP DP  RH WIND       PRES   REMARKS
DENVER INTL AP FAIR      51  21  30 VRB6      30.25R
DMNS CITY PARK   N/A     55  22  27 SE10      30.26R
AURORA         PTCLDY    55  22  27 SW8       30.27R
FRONT RANGE AP PTCLDY    59   9  13 NW3       30.27R
ERIE MUNI ARPT FAIR      52  21  29 CALM      30.30R
BOULDER MUN AP FAIR      59  21  23 SE5       30.25R
CENTENNIAL     FAIR      49  24  37 S5        30.28R
BROOMFIELD     CLEAR     59  12  15 W21       30.27R
FORT COLLINS   FAIR      57  22  25 N6        30.24R
LONGMONT       FAIR      51  24  34 E5        30.26R
$$

COZ041-046-047-076>085-087-088-170400-
...PIKES PEAK/PALMER DIVIDE AND SOUTHERN FOOTHILLS...

CITY           SKY/WX    TMP DP  RH WIND       PRES   REMARKS
COLO. SPRINGS  FAIR      51  16  24 N8        30.32R
A. F. ACADEMY  FAIR      40  16  37 N10       30.32S
SCHRIEVER AFB  FAIR      54  11  17 N5        30.31R
CHEYENNE MTN   FAIR      58   6  12 SW3       30.29S
ELLICOTT       FAIR     N/A N/A N/A E10       30.28S
FALCON         FAIR      46  12  25 NW7       30.35R
FORT CARSON    FAIR      49  19  30 N8        30.28R
LIMON          FAIR      34  24  67 CALM      30.26R
MONUMENT HILL  FAIR      41  16  36 SW7       30.37R
CANON CITY     CLEAR     55  12  18 NW9       30.24S
WALSENBURG     FAIR      55  12  18 W12       30.28R
TRINIDAD       FAIR      53  30  41 W9        30.26S
$$

COZ042>045-048>051-090-091-170400-
...NORTHEAST COLORADO...

CITY           SKY/WX    TMP DP  RH WIND       PRES   REMARKS
GREELEY ARPT   NOT AVBL
AKRON          FAIR      58  14  17 NE9       30.21R
BURLINGTON     FAIR      51  29  42 SW9       30.19R
WRAY           FAIR      55  23  28 N6        30.16R
YUMA           FAIR      46  30  53 CALM      30.18R
STERLING       FAIR      45  30  57 NW7       30.19R
HOLYOKE        FAIR      46  32  57 NW5       30.18R
FORT MORGAN    FAIR      55  16  21 N13       30.21S
$$

COZ086-089-092>099-170400-
...SOUTHEAST COLORADO...

CITY           SKY/WX    TMP DP  RH WIND       PRES   REMARKS
PUEBLO         FAIR      51  24  34 N10       30.19S
LA JUNTA       FAIR      54  27  35 N3        30.17S
LAMAR          FAIR      47  32  56 S12       30.13S
SPRINGFIELD      N/A     49  36  61 SW7       30.21S
$$




USA.gov is the U.S. government's official web portal to all federal, state and local government web resources and services.